CZ-6A DEB, 54476

Orbit data source: Space-Track

CZ-6A DEB, 54476 is space debris in SSO originally from a launch on Fri, 11 Nov 2022 UTC launched from the Taiyaun Space Center, China (TSC). Debris objects in space refer to the collection of defunct objects orbiting the Earth. Examples of debris include non-operational satellites, rocket bodies, and fragments generated from explosions, collisions, or faulty payload assembly.

Loading next visibility...
Identifier
54476, 2022-151HC
Orbit
SSO
Country
Flag of CNCN / PRC
Related business
Manufacturer
SAST
Mission
Spacecraft
Bus & Motor
Unknown
Mass
Unknown
Launch date (UTC)
2022-11-11 (3 years ago)
Launch vehicle
Unknown
Launch site
Taiyaun Space Center, China (TSC)
Object type
Payload
Rocket body
Debris
Shape & HBR
Unknown shape, 0.1 m
Radar Cross Section
Small (<0.1 m²)

Expand to show TLE details & history
Last TLE update: 14 hours ago

TLE from 14 hours ago
0 CZ-6A DEB
1 54476U 22151HC  25355.04883407  .00002710  00000-0  71793-3 0  9991
2 54476  98.6233  26.8076 0108603 176.1343 184.0713 14.46136075162966
Epoch: 2025-12-21T01:10Z
TLE epoch observation values (Epoch: 2025-12-21T01:10:19.263Z)
Latitude
0.00002°
Longitude
-80.63954°
Altitude
818.362 km
Speed
7.404 km/s
True Right ascension
01h 47m 13s
True Declination
0° 00' 00"
Sunlit
Object was in daylight at epoch
Visualization orbit readout
Latitude
Unknown
Longitude
Unknown
Altitude
Unknown
Speed
Unknown
Apparent Right ascension
Unknown
Apparent Declination
Unknown
Sunlit
N/A
Visualization observer readout
Local Sidereal Time
13:56:45
Azimuth
Unknown
Elevation
Unknown
Doppler factor
Unknown
Orbital elements
Apogee altitude
812.671 km
Perigee altitude
658.16 km
Semi-major axis
7,113.553 km
Eccentricity
0.01086
Inclination
98.6233°
RAAN
26.8076°
Arg. of periapsis
176.1343°
True anomaly
183.98412°
Mean anomaly
184.0713°
Eccentric anomaly
184.0276°
Mean motion
3.61754 °/min
Orbital period
99.52 mins
BSTAR
0.00071793
Loading maneuver chart data...
Computing Atmospheric mass density...
Loading historical data...
Loading historical data...
Loading historical data...
Loading historical data...
Loading historical data...
Loading historical data...
Loading historical data...

Documentation

Showing up to 5 results
|